Weather History for Panama City, FL

Change the Weather History Date:

Sunday, October 7, 2012

  Actual Average Record
Temperature  
Mean Temperature 74 °F -  
Max Temperature 83 °F - 87 °F (2011)
Min Temperature 64 °F - 48 °F (2010)
Degree Days  
Heating Degree Days 0    
Cooling Degree Days 9    
Growing Degree Days 24 (Base 50)    
Moisture  
Dew Point 65 °F    
Average Humidity 74    
Maximum Humidity 93    
Minimum Humidity 55    
Precipitation  
Precipitation 0.00 in - 0.38 in (2013)
Sea Level Pressure  
Sea Level Pressure 30.02 in    
Wind  
Wind Speed 7 mph (NNW)    
Max Wind Speed 14 mph    
Max Gust Speed 25 mph    
Visibility 9 miles    
Events      
T = Trace of Precipitation, MM = Missing Value Source: NWS Daily Summary

Daily Weather History Graph

Daily Weather History Graph

Search for Another Location

Airport:

Trip Planner

Search our weather history database for the weather conditions in past years. The results will help you decide how hot, cold, wet, or windy it might be!

Date:

Astronomy

Oct. 07, 2012 Rise Set
Actual Time 7:40 AM EDT 7:20 PM EDT
Civil Twilight 7:16 AM EDT 7:44 PM EDT
Nautical Twilight 6:48 AM EDT 8:12 PM EDT
Astronomical Twilight 6:20 AM EDT 8:40 PM EDT
Moon No Moon Rise 2:00 PM EDT (10/7)
Length of Visible Light 12h 28m
Length of Day
11h 40m
Waning Gibbous, 56% of the Moon is Illuminated
Oct 7
Waning Gibbous
Oct 8
Last Quarter
Oct 15
New
Oct 21
First Quarter
Oct 29
Full

Hourly Weather History & Observations

Time (EDT) Temp. Heat Index Dew Point Humidity Pressure Visibility Wind Dir Wind Speed Gust Speed Precip Events Conditions
12:53 AM 71.6 °F - 69.8 °F 94% 29.96 in 8.0 mi NW 3.5 mph - N/A   Clear
1:53 AM 71.1 °F - 66.9 °F 87% 29.99 in 10.0 mi NW 6.9 mph - N/A   Clear
2:53 AM 70.0 °F - 66.0 °F 87% 30.00 in 10.0 mi NNW 4.6 mph - N/A   Clear
3:53 AM 69.1 °F - 64.9 °F 87% 29.99 in 9.0 mi NW 5.8 mph - N/A   Clear
4:53 AM 68.0 °F - 64.9 °F 90% 29.99 in 8.0 mi NNW 5.8 mph - N/A   Clear
5:53 AM 66.9 °F - 64.9 °F 93% 30.00 in 7.0 mi NNW 5.8 mph - N/A   Clear
6:53 AM 66.9 °F - 64.0 °F 90% 30.01 in 7.0 mi NNW 5.8 mph - N/A   Clear
7:53 AM 66.0 °F - 64.0 °F 93% 30.02 in 5.0 mi North 4.6 mph - N/A   Clear
8:53 AM 66.9 °F - 64.0 °F 90% 30.04 in 7.0 mi NNW 10.4 mph - N/A   Clear
9:53 AM 71.1 °F - 64.0 °F 78% 30.06 in 10.0 mi North 8.1 mph - N/A   Clear
10:53 AM 75.0 °F - 64.9 °F 71% 30.06 in 10.0 mi NNW 9.2 mph - N/A   Clear
11:53 AM 75.9 °F - 64.9 °F 69% 30.06 in 10.0 mi NNW 11.5 mph - N/A   Clear
12:53 PM 78.1 °F - 66.0 °F 66% 30.06 in 10.0 mi NNW 10.4 mph - N/A   Clear
1:53 PM 79.0 °F - 64.9 °F 62% 30.04 in 10.0 mi NNW 10.4 mph - N/A   Clear
2:53 PM 81.0 °F 83.0 °F 66.0 °F 60% 30.01 in 10.0 mi North 9.2 mph - N/A   Clear
3:53 PM 82.0 °F 84.1 °F 66.0 °F 58% 29.99 in 10.0 mi North 8.1 mph - N/A   Clear
4:53 PM 82.0 °F 83.8 °F 64.9 °F 56% 29.99 in 10.0 mi NW 10.4 mph - N/A   Clear
5:53 PM 80.1 °F 81.9 °F 64.9 °F 60% 29.99 in 10.0 mi NNW 6.9 mph - N/A   Clear
6:53 PM 77.0 °F - 66.0 °F 69% 30.01 in 10.0 mi North 4.6 mph - N/A   Clear
7:53 PM 73.0 °F - 66.9 °F 81% 30.01 in 10.0 mi NW 4.6 mph - N/A   Clear
8:53 PM 71.1 °F - 66.0 °F 84% 30.03 in 10.0 mi NNW 6.9 mph - N/A   Clear
9:53 PM 70.0 °F - 64.9 °F 84% 30.05 in 10.0 mi NW 8.1 mph - N/A   Clear
10:53 PM 68.0 °F - 63.0 °F 84% 30.07 in 10.0 mi NNW 6.9 mph - N/A   Clear
11:53 PM 66.0 °F - 62.1 °F 87% 30.06 in 10.0 mi NW 6.9 mph - N/A   Clear